Weather in Zanjan

Iran     36°40′52″N   48°29′31″E
temp.,
°C
wind,
m/s
gust,
m/s
humid.,
%
clouds,
%
prec.,
mm/h
press.,
hPa
HPBL,
m
14 may, fri
fri1401:30+13n126596 0.0 1017186
04:30+12ne2267100 0.0 1017129
07:30+12ne22649 0.0 1018258
10:30+16ne343872 0.0 10171130
13:30+19ene53356 0.0 10161779
16:30+19ene75343 0.0 10141489
19:30+15ene57430 0.0 1015572
22:30+12ene4549100 0.0 1017279
15 may, sat
sat1501:30+10ene3352100 0.0 1018165
04:30+10ene335699 0.0 1017108
07:30+11ne23540 0.0 1017193
10:30+15ene22352 0.0 10161044
13:30+18ene433412 0.0 10151991
16:30+19ene643541 0.0 10141825
19:30+15ene55452 0.0 1014556
22:30+12e44600 0.0 1017202
16 may, sun
sun1601:30+12ene22540 0.0 101695
04:30+11ene22450 0.0 101554
07:30+13ene22392 0.0 1016111
10:30+18se23342 0.0 10141562
13:30+21sse332521 0.0 10122880
16:30+22ese442575 0.0 10102844
19:30+18ene55375 0.0 1012447
22:30+15e34441 0.0 1014114
17 may, mon
mon1701:30+15ese35437 0.0 1013142
04:30+14ese343912 0.0 101474
07:30+16se33354 0.0 1015107
10:30+21s34261 0.0 10131231
13:30+24sw551855 0.0 10123386
16:30+25w241545 0.0 10103802
19:30+20ene333225 0.2 1012193
22:30+18nne11335 0.2 101380
18 may, tue
tue1801:30+16nnw01367 0.0 101335
04:30+15sse113987 0.0 101332
07:30+17se2337100 0.0 101380
10:30+21s3725100 0.0 10121262
13:30+24s61218100 0.0 10093660
16:30+22sse3924100 0.3 10081899
19:30+21ssw410300 0.6 10071182
22:30+13e45620 0.7 1012104